Zurück zum Katalog

COSMOS 1998

AktivMilitärPO
NORAD 19789·PAYLOAD·🇷🇺 Russia

Gestartet Feb 10, 1989 von Plesetsk Cosmodrome

Loading…

Nächste Überflüge (nächste 24 Stunden)

TLE

AktuellSource: Space-Track

Epoche: Sep 14, 2026, 07:01 UTC

1 19789U 89009E   26257.29304241  .00000000  00000-0 -57276-4 0  9999
2 19789  82.6063 274.6101 0017237  79.1411 281.1621 12.64935565735287

Verfolge COSMOS 1998 in Echtzeit mit AllMySat

Download on the App Store